Location: ??????????
(54.7560°N, 39.1389°E)
Time: 00:52:02
(UTC+00:00)

Cosmos 2173 Rocket - Pass Details

Date: 19 May 2025
Orbit: 944 x 999 km, 83.0° (Epoch: 13 June)

Event Time Altitude Azimuth Distance (km) Brightness Sun altitude
Rises 21:23:38 0° 348° (NNW) 3,735 8.7 -15.3°
Reaches altitude 10° 21:26:12 10° 350° (N) 2,778 7.7 -15.3°
Maximum altitude 21:32:36 80° 78° (ENE) 1,014 4.1 -15.2°
Enters shadow 21:37:11 20° 164° (SSE) 2,111 5.2 -15.2°
